Weather History for Cleveland Burke, OH

Change the Weather History Date:

Thursday, November 8, 2012

  Actual Average Record
Temperature  
Mean Temperature 38 °F -  
Max Temperature 42 °F 50 °F 70 °F (2011)
Min Temperature 35 °F 39 °F 33 °F (2003)
Degree Days  
Heating Degree Days 26    
Moisture  
Dew Point 31 °F    
Average Humidity 70    
Maximum Humidity 82    
Minimum Humidity 65    
Precipitation  
Precipitation 0.00 in - - ()
Sea Level Pressure  
Sea Level Pressure 30.17 in    
Wind  
Wind Speed 8 mph (NNW)    
Max Wind Speed 10 mph    
Max Gust Speed -    
Visibility 9 miles    
Events      
Averages and records for this station are not official NWS values.
T = Trace of Precipitation, MM = Missing Value Source: NWS Daily Summary

Daily Weather History Graph

Daily Weather History Graph

Search for Another Location

Airport:

Trip Planner

Search our weather history database for the weather conditions in past years. The results will help you decide how hot, cold, wet, or windy it might be!

Date:

Astronomy

Nov. 08, 2012 Rise Set
Actual Time 7:07 AM EST 5:12 PM EST
Civil Twilight 6:38 AM EST 5:42 PM EST
Nautical Twilight 6:05 AM EST 6:15 PM EST
Astronomical Twilight 5:32 AM EST 6:47 PM EST
Moon 12:57 AM EST (11/8) 1:57 PM EST (11/8)
Length of Visible Light 11h 04m
Length of Day
10h 05m
Waning Crescent, 33% of the Moon is Illuminated
Nov 8
Waning Crescent
Nov 13
New
Nov 20
First Quarter
Nov 28
Full
Dec 6
Last Quarter

Hourly Weather History & Observations

Time (EST) Temp. Windchill Dew Point Humidity Pressure Visibility Wind Dir Wind Speed Gust Speed Precip Events Conditions
12:53 AM 42.1 °F 36.1 °F 30.9 °F 65% 30.11 in - North 10.4 mph - N/A   Overcast
1:53 AM 41.0 °F 37.1 °F 30.9 °F 67% 30.11 in - North 5.8 mph - N/A   Overcast
2:53 AM 41.0 °F 37.1 °F 30.9 °F 67% 30.12 in - NNE 5.8 mph - N/A   Overcast
3:38 AM 39.2 °F 33.6 °F 30.2 °F 70% 30.11 in - NNE 8.1 mph - N/A   Scattered Clouds
3:53 AM 39.9 °F 33.4 °F 30.0 °F 68% 30.12 in - NNE 10.4 mph - N/A   Scattered Clouds
4:53 AM 41.0 °F 36.4 °F 30.9 °F 67% 30.13 in - NNE 6.9 mph - N/A   Mostly Cloudy
5:53 AM 41.0 °F 37.1 °F 30.9 °F 67% 30.15 in - North 5.8 mph - N/A   Overcast
6:53 AM 41.0 °F 34.7 °F 30.9 °F 67% 30.17 in - North 10.4 mph - N/A   Overcast
7:53 AM 42.1 °F 37.1 °F 30.9 °F 65% 30.18 in 10.0 mi North 8.1 mph - N/A   Overcast
8:53 AM 42.1 °F 36.1 °F 30.9 °F 65% 30.20 in 10.0 mi North 10.4 mph - N/A   Overcast
9:53 AM 42.1 °F 36.6 °F 30.9 °F 65% 30.21 in 10.0 mi North 9.2 mph - N/A   Mostly Cloudy
10:25 AM 42.8 °F 37.5 °F 32.0 °F 66% 30.21 in 10.0 mi North 9.2 mph - N/A   Overcast
10:53 AM 42.1 °F 36.1 °F 30.9 °F 65% 30.22 in 10.0 mi NNW 10.4 mph - N/A   Overcast
11:53 AM 42.1 °F 37.1 °F 32.0 °F 67% 30.21 in 10.0 mi NNW 8.1 mph - N/A   Overcast
12:53 PM 41.0 °F 35.2 °F 30.9 °F 67% 30.19 in 10.0 mi NNW 9.2 mph - N/A   Overcast
1:53 PM 41.0 °F 35.8 °F 30.9 °F 67% 30.19 in 10.0 mi NW 8.1 mph - N/A   Overcast
2:53 PM 42.1 °F 37.7 °F 32.0 °F 67% 30.17 in 10.0 mi NW 6.9 mph - N/A   Overcast
3:53 PM 41.0 °F 37.1 °F 32.0 °F 70% 30.18 in 10.0 mi WNW 5.8 mph - N/A   Overcast
4:53 PM 41.0 °F 37.1 °F 32.0 °F 70% 30.18 in 10.0 mi West 5.8 mph - N/A   Scattered Clouds
5:53 PM 39.0 °F - 30.9 °F 73% 30.18 in 10.0 mi Calm Calm - N/A   Mostly Cloudy
6:53 PM 39.0 °F 35.7 °F 32.0 °F 76% 30.18 in 10.0 mi WNW 4.6 mph - N/A   Clear
7:53 PM 39.0 °F 34.0 °F 33.1 °F 79% 30.18 in 10.0 mi WNW 6.9 mph - N/A   Scattered Clouds
8:53 PM 39.9 °F - 33.1 °F 77% 30.18 in 10.0 mi Calm Calm - N/A   Clear
9:53 PM 36.0 °F 31.1 °F 30.9 °F 82% 30.18 in 6.0 mi South 5.8 mph - N/A   Haze
10:53 PM 35.1 °F 29.3 °F 30.0 °F 82% 30.17 in 6.0 mi SSE 6.9 mph - N/A   Haze
11:53 PM 35.1 °F 29.3 °F 30.0 °F 82% 30.17 in 6.0 mi SSE 6.9 mph - N/A   Haze